User: anonymous   Login
Location: Niedergestelen
(46.3129°N, 7.7822°E)
Time: 12:57:15
(UTC+00:00)
Language:

Meteor 2-6 Rocket - Orbit

View from above orbital plane
View from above orbital plane
View from above satellite
View from above satellite

Ground track
Ground track

The orbit data is extracted from the following two-line orbital elements,

1 11963U 80073B   21061.85407707  .00000058  00000-0  24985-4 0  9991
2 11963  81.2736 251.2849 0075422 202.7611 157.0211 14.09729582 81383
Epoch (UTC): 02 March 2021 20:29:52
Eccentricity: 0.0075422
inclination: 81.2736°
perigee height: 806 km
apogee height: 915 km
right ascension of ascending node: 251.2849°
argument of perigee: 202.7611°
revolutions per day: 14.09729582
mean anomaly at epoch: 157.0211°
orbit number at epoch: 8138

The dashed part of the orbit path shows where the satellite is in the earth's shadow,  

DLR